Probability
0 0 0 0 0 0 0 0 0 0 0 0 0 0 0 0 0 0 0 1 1 1 0 0 0 0 0 1 2 3 4 4 4 3 4 5 5 4 2 0 0 0 0 0
0 0 0 0 0 0 0 0 0 0 0 0 0 0 0 0 0 0 0 0 0 0 0 0 0 0 0 0 1 1 3 4 3 2 3 3 3 3 2 1 0 0 0 0
0 0 0 0 0 0 0 0 0 0 0 0 0 0 0 0 0 0 0 0 0 0 0 0 0 0 0 0 0 0 1 2 1 1 1 1 1 1 1 1 0 0 0 0
0 0 0 0 0 0 0 0 0 0 0 0 0 0 0 0 0 0 0 0 0 0 0 0 0 0 0 0 0 0 0 0 0 0 0 0 0 0 0 0 0 0 0 0
0 0 0 0 0 0 0 0 0 0 0 0 0 0 0 0 0 0 0 0 0 0 0 0 0 0 0 0 0 0 0 0 0 0 0 0 0 0 0 0 0 0 0 0
0 0 0 0 0 0 0 0 0 0 0 0 0 0 0 0 0 0 0 0 0 0 0 0 0 0 0 0 0 0 0 0 0 0 0 0 0 0 0 0 0 0 0 0
0 0 0 0 0 0 0 0 0 0 0 0 0 0 0 0 0 0 0 0 0 0 0 0 0 0 0 0 0 0 0 0 0 0 0 0 0 0 0 0 0 0 0 0
0 0 0 0 0 0 0 0 0 0 0 0 0 0 0 0 0 0 0 0 0 0 0 0 0 0 0 0 0 0 0 0 0 0 0 0 0 0 0 0 0 0 0 0
0 0 0 0 0 0 0 0 0 0 0 0 0 0 0 0 0 0 0 0 0 0 0 0 0 0 0 0 0 0 0 0 0 0 0 0 0 0 0 0 0 0 0 0
0 0 0 0 0 0 0 0 0 0 0 0 0 0 0 0 0 0 0 0 0 0 0 0 0 0 0 0 0 0 0 0 0 0 0 0 0 0 0 0 0 0 0 0
0 0 0 0 0 0 0 0 0 0 0 0 0 0 0 0 0 0 0 0 0 0 0 0 0 0 0 0 0 0 0 0 0 0 0 0 0 0 0 0 0 0 0 0
0 0 0 0 0 0 0 0 0 0 0 0 0 0 0 0 0 0 0 0 0 0 0 0 0 0 0 0 0 0 0 0 0 0 0 0 0 0 0 0 0 0 0 0
0 0 0 0 0 0 0 0 0 0 0 0 0 0 0 0 0 0 0 0 0 0 0 0 0 0 0 0 0 0 0 0 0 0 0 0 0 0 0 0 0 0 0 0
0 0 0 0 0 0 0 0 0 0 0 0 0 0 0 0 0 0 0 0 0 0 0 0 0 0 0 0 0 0 0 0 0 0 0 0 0 0 0 0 0 0 0 0
0 0 0 0 0 0 0 0 0 0 0 0 0 0 0 0 0 0 0 0 0 0 0 0 0 0 0 0 0 0 0 0 0 0 0 0 0 0 0 0 0 0 0 0
0 0 0 0 0 0 0 0 0 0 0 0 0 0 0 0 0 0 0 0 0 0 0 0 0 0 0 0 0 0 0 0 0 0 0 0 0 0 0 0 0 0 0 0
0 0 0 0 0 0 0 0 0 0 0 0 0 0 0 0 0 0 0 0 0 0 0 0 0 0 0 0 0 0 0 0 0 0 0 0 0 0 0 0 0 0 0 0
0 0 0 0 0 0 0 0 0 0 0 0 0 0 0 0 0 0 0 0 0 0 0 0 0 0 0 0 0 0 0 0 0 0 0 0 0 0 0 0 0 0 0 0
0 0 0 0 0 0 0 0 0 0 0 0 0 0 0 0 0 0 0 0 0 0 0 0 0 0 0 0 0 0 0 0 0 0 0 0 0 0 0 0 0 0 0 0
0 0 0 0 0 0 0 0 0 0 0 0 0 0 0 0 0 0 0 0 0 0 0 0 0 0 0 0 0 0 0 0 0 0 0 0 0 0 0 0 0 0 0 0
0 0 0 0 0 0 0 0 0 0 0 0 0 0 0 0 0 0 0 0 0 0 0 0 0 0 0 0 0 0 0 0 0 0 0 0 0 0 0 0 0 0 0 0
0 0 0 0 0 0 0 0 0 0 0 0 0 0 0 0 0 0 0 0 0 0 0 0 0 0 0 0 0 0 0 0 0 0 0 0 0 0 0 0 0 0 0 0
0 0 0 0 0 0 0 0 0 0 0 0 0 0 0 0 0 0 0 0 0 0 0 0 0 0 0 0 0 0 0 0 0 0 0 0 0 0 0 0 0 0 0 0
0 0 0 0 0 0 0 0 0 0 0 0 0 0 0 0 0 0 0 0 0 0 0 0 0 0 0 0 0 0 0 0 0 0 0 0 0 0 0 0 0 0 0 0
0 0 0 0 0 0 0 0 0 0 0 0 0 0 0 0 0 0 0 0 0 0 0 0 0 0 0 0 0 0 0 0 0 0 0 0 0 0 0 0 0 0 0 0
0 0 0 0 0 0 0 0 0 0 0 0 0 0 0 0 0 0 0 0 0 0 0 0 0 0 0 0 0 0 0 0 0 0 0 0 0 0 0 0 0 0 0 0
Wind_Speed
3 3 2 5 6 3 3 2 3 4 2 2 6 10 10 5 4 6 6 6 6 6 4 2 3 3 3 3 3 3 3 2 2 1 1 1 1 1 1 1 0 0 0 1
4 2 5 2 2 2 2 3 4 4 2 2 5 10 8 6 5 5 6 6 6 4 3 3 3 3 3 4 3 3 3 3 2 2 1 1 1 1 1 1 1 1 1 0
4 3 1 2 2 2 3 4 4 4 3 2 4 8 5 3 2 2 3 4 4 5 5 4 4 4 4 4 4 4 3 3 2 2 1 1 1 1 0 1 1 1 1 1
2 3 1 1 2 3 4 3 3 3 1 4 0 6 7 3 3 4 4 4 4 3 3 3 4 4 5 5 3 3 3 3 3 3 3 3 2 1 1 1 1 1 1 1
3 1 1 2 3 3 3 1 1 1 2 3 2 4 9 2 4 6 6 5 4 3 3 4 4 4 4 3 3 3 3 2 2 3 3 3 2 1 0 0 0 1 1 1
3 2 1 2 1 2 2 2 2 2 2 4 5 5 9 5 6 5 4 4 4 2 2 2 1 2 2 2 2 3 3 2 2 2 3 3 3 2 1 0 0 0 0 1
4 3 2 1 1 2 2 3 2 3 2 6 2 5 11 7 5 4 4 4 3 2 2 2 2 2 2 2 3 3 3 2 2 2 2 2 3 3 3 2 1 1 1 1
1 4 2 1 2 3 2 4 5 5 5 5 2 7 9 4 3 3 3 2 2 1 2 2 3 3 3 3 3 3 3 2 2 2 2 1 2 1 1 1 1 2 2 1
3 4 3 2 1 3 3 2 2 3 1 3 6 7 10 3 3 2 2 1 2 1 2 2 2 2 2 2 3 3 3 3 2 2 2 1 1 1 1 1 1 1 1 1
3 3 4 3 1 2 2 4 3 3 2 5 6 5 6 5 4 3 3 3 3 1 1 1 1 2 2 2 2 2 3 3 2 2 2 2 1 1 1 0 0 0 0 0
1 2 4 2 3 4 2 2 3 2 2 3 4 8 5 5 4 4 5 4 3 2 2 2 1 1 1 1 1 2 2 2 2 2 2 2 1 1 1 0 0 0 0 0
1 3 3 5 3 2 3 4 5 4 4 3 3 9 3 4 3 3 3 3 2 2 2 2 2 1 1 1 1 2 2 2 2 2 2 2 2 1 1 1 0 0 0 1
1 3 1 4 2 1 1 2 3 3 2 3 4 9 3 2 2 2 3 3 2 1 1 1 1 2 2 2 2 2 2 2 2 2 2 2 2 2 1 1 1 1 1 1
2 3 5 7 5 3 4 4 4 4 4 5 9 11 9 7 5 4 3 3 3 2 2 2 2 2 2 2 2 2 2 2 2 2 2 2 2 2 2 1 1 1 1 1
2 3 4 6 5 4 6 7 7 8 9 9 10 11 13 8 7 5 4 3 3 3 3 3 3 3 3 3 2 2 2 2 2 3 3 3 2 2 2 2 1 1 1 1
1 2 2 5 4 5 8 9 9 10 9 10 10 15 11 6 4 4 4 4 5 5 5 4 4 4 4 4 3 2 2 2 2 3 3 2 2 2 2 2 2 2 1 1
2 3 2 4 3 3 9 10 11 8 8 8 12 13 5 4 5 5 5 5 6 6 6 5 5 5 5 4 4 4 3 2 3 3 3 2 3 2 2 2 2 2 1 1
5 4 2 2 1 8 8 2 6 8 8 8 8 7 5 6 6 5 5 5 6 5 5 5 4 4 3 3 3 3 2 3 3 3 3 3 3 3 2 2 2 1 1 1
5 5 3 2 4 9 7 3 4 5 7 7 10 9 6 4 4 5 5 5 5 5 5 4 4 4 3 3 3 3 3 3 3 3 3 4 4 3 3 3 2 2 1 1
2 3 3 3 4 7 6 3 1 2 6 4 6 7 5 1 2 6 3 3 3 3 2 2 2 2 2 3 3 3 3 3 4 4 3 3 4 4 4 4 2 2 2 2
2 2 4 5 6 9 5 2 2 3 6 3 3 4 3 5 6 5 4 2 2 2 2 1 2 2 3 3 3 3 3 4 4 3 2 3 3 4 3 3 2 2 2 1
7 5 5 4 5 9 2 3 5 6 3 2 3 3 4 5 5 4 3 3 2 2 2 1 1 2 2 2 3 4 4 4 2 2 3 3 3 3 3 3 2 2 2 2
7 8 6 8 8 5 4 5 5 3 4 4 4 4 3 4 5 4 3 3 2 2 2 2 2 2 2 2 3 5 4 3 3 3 3 3 2 2 3 3 3 2 2 2
4 2 3 5 8 6 6 6 5 5 6 5 5 5 4 5 5 5 4 3 3 3 3 2 2 2 3 3 3 4 4 3 3 3 3 3 3 2 2 2 3 3 3 3
5 4 4 6 7 6 6 6 7 6 6 6 5 5 5 5 5 5 4 4 4 3 3 2 3 3 4 3 3 3 3 3 3 3 3 3 3 3 3 3 3 4 4 4
6 7 7 8 6 5 7 5 5 6 6 7 6 6 5 5 6 5 5 4 3 3 3 3 3 3 4 3 3 3 3 4 4 3 3 3 2 3 3 2 2 4 5 6
Wind_Direction
31 73 206 220 207 204 175 191 247 264 285 251 245 261 271 261 242 247 247 241 235 239 237 203 187 175 167 167 165 163 156 161 148 148 158 166 219 272 297 289 308 316 255 217
46 257 246 216 191 178 197 236 261 283 306 262 275 271 266 244 232 230 233 237 237 240 239 213 192 181 184 184 184 174 172 171 171 173 182 180 190 220 245 293 336 334 322 297
189 248 248 164 178 186 234 219 236 258 319 336 313 294 270 256 237 243 241 235 231 221 223 216 200 199 193 193 193 185 181 175 170 151 118 84 60 39 23 335 326 327 327 310
247 269 217 185 220 193 247 238 226 241 277 288 358 288 282 260 265 247 246 240 236 232 218 213 205 203 203 203 190 177 172 169 166 158 155 155 165 199 242 252 267 316 342 340
265 282 204 222 233 193 222 246 206 221 204 282 258 239 280 280 256 252 243 238 238 228 209 211 208 204 199 185 174 167 160 161 161 163 170 172 177 189 217 290 319 338 341 329
265 282 252 226 258 202 164 66 49 46 84 266 230 207 273 242 229 251 244 238 236 228 219 216 197 167 157 150 147 148 152 160 159 157 164 170 173 161 148 200 203 251 281 275
321 315 324 43 60 20 81 92 21 346 320 252 212 213 250 251 241 238 244 245 241 219 196 191 183 179 173 166 160 158 157 160 161 156 166 177 181 173 178 197 207 208 241 262
265 290 281 312 195 193 205 161 175 208 236 277 255 235 254 261 277 267 259 243 226 219 200 196 203 199 192 184 174 167 168 168 167 164 179 183 177 177 194 205 202 208 223 229
192 260 322 306 301 149 155 203 184 145 222 272 262 279 298 273 300 305 292 256 229 230 221 209 202 198 197 194 193 182 171 170 176 174 168 173 175 168 196 232 220 215 235 221
176 256 300 310 5 21 154 143 107 143 195 260 282 269 262 282 273 279 273 262 260 254 240 221 204 202 206 204 191 172 167 176 176 168 172 176 181 178 163 157 230 251 266 100
178 191 307 327 202 200 141 149 151 155 186 200 268 268 235 242 242 241 255 255 246 239 234 222 211 208 191 171 162 170 174 167 166 172 173 169 178 171 142 146 253 260 205 107
178 143 250 255 262 254 205 193 167 177 225 205 233 269 275 245 255 234 252 263 256 239 229 213 201 188 171 179 191 192 188 185 189 182 171 174 167 156 153 167 196 123 104 98
147 132 353 330 327 341 245 217 187 153 144 190 218 267 316 314 295 265 251 254 245 237 245 242 216 209 205 206 214 208 196 196 183 164 160 162 161 161 176 171 151 136 123 100
113 166 192 220 239 212 241 241 203 173 196 225 233 261 288 291 282 279 268 251 237 228 232 233 235 234 229 222 215 203 201 187 172 160 164 176 181 177 182 168 155 154 148 138
119 218 237 255 266 242 240 237 218 217 215 220 245 251 263 264 262 264 259 250 244 245 243 238 237 239 235 231 222 205 199 183 173 170 183 196 183 165 156 150 150 138 136 144
134 213 251 275 270 257 262 248 228 236 237 240 257 266 262 265 264 263 251 240 241 244 244 244 240 235 232 229 227 220 212 195 171 182 200 192 165 162 164 164 158 145 134 115
193 177 210 269 295 312 265 232 213 220 222 211 234 251 273 278 267 256 253 244 239 242 241 237 234 232 231 225 214 213 215 187 177 192 197 185 175 175 176 169 158 157 152 132
187 186 204 259 26 246 249 218 202 217 237 227 246 263 261 258 271 264 244 233 245 244 241 236 230 235 236 226 215 207 192 181 185 193 195 189 181 185 177 169 178 181 166 170
195 181 185 187 236 272 288 263 189 203 260 235 238 258 270 288 314 290 250 228 236 240 237 232 228 226 224 220 206 189 190 186 189 202 204 197 186 185 182 190 197 189 177 198
165 171 176 185 215 248 263 286 240 130 281 265 225 250 266 315 293 280 286 258 252 261 247 232 224 213 217 224 189 183 198 193 209 214 209 198 187 188 194 199 199 193 190 207
159 182 200 210 234 260 266 278 123 170 260 294 238 246 223 216 233 269 297 293 271 276 271 237 214 218 225 211 179 193 207 219 221 207 197 197 196 196 195 195 193 186 192 195
183 183 197 185 218 254 236 140 189 231 278 300 284 261 243 252 274 287 286 285 292 296 285 251 233 256 252 206 185 204 224 227 206 190 195 201 200 201 191 181 192 189 183 193
206 198 193 198 220 248 192 213 244 262 277 282 278 279 266 265 272 278 279 278 274 260 262 249 220 254 269 232 198 213 232 208 189 190 203 204 202 204 194 186 190 190 188 199
248 224 206 250 261 260 254 260 271 261 259 267 267 271 260 260 267 269 273 276 274 266 258 247 221 239 258 245 223 223 222 198 184 196 207 205 196 201 197 196 194 194 197 205
225 188 214 253 270 289 266 241 254 265 267 268 267 258 251 251 262 260 265 269 267 269 263 242 230 239 252 249 239 234 217 188 187 198 204 206 204 202 200 203 206 207 212 207
198 191 196 235 237 233 264 267 262 262 266 266 268 272 261 237 251 261 262 261 260 263 260 255 248 248 253 249 247 244 217 191 187 196 205 205 203 203 198 199 225 232 226 233